Time,TemperatureF,DewpointF,PressureIn,WindDirection,WindDirectionDegrees,WindSpeedMPH,WindSpeedGustMPH,Humidity,HourlyPrecipIn,Conditions,Clouds,dailyrainin,SoftwareType,DateUTC
2013-03-03 00:00:00,31.2,23.9,29.84,WNW,287,0.0,0.0,74,0.00,,CLR,0.00,VWS V14.00,2013-03-03 05:00:00,
2013-03-03 00:05:00,31.2,23.9,29.84,WNW,288,0.0,4.0,74,0.00,,CLR,0.00,VWS V14.00,2013-03-03 05:05:00,
2013-03-03 00:10:00,31.2,23.9,29.84,WNW,285,0.0,4.0,74,0.00,,CLR,0.00,VWS V14.00,2013-03-03 05:10:00,
2013-03-03 00:15:00,31.1,23.8,29.84,WNW,285,0.0,4.0,74,0.00,,CLR,0.00,VWS V14.00,2013-03-03 05:15:00,
2013-03-03 00:20:00,31.1,23.5,29.84,WNW,285,2.0,5.0,73,0.00,,CLR,0.00,VWS V14.00,2013-03-03 05:20:00,
2013-03-03 00:25:00,31.1,23.8,29.84,WNW,294,0.0,5.0,74,0.00,,CLR,0.00,VWS V14.00,2013-03-03 05:25:00,
2013-03-03 00:30:00,31.0,24.0,29.84,WNW,293,1.0,2.0,75,0.00,,CLR,0.00,VWS V14.00,2013-03-03 05:30:00,
2013-03-03 00:35:00,30.8,23.8,29.84,WNW,292,0.0,2.0,75,0.00,,CLR,0.00,VWS V14.00,2013-03-03 05:35:00,
2013-03-03 00:40:00,30.6,23.6,29.84,WNW,291,0.0,2.0,75,0.00,,CLR,0.00,VWS V14.00,2013-03-03 05:40:00,
2013-03-03 00:45:00,30.4,23.8,29.84,WNW,291,0.0,2.0,76,0.00,,CLR,0.00,VWS V14.00,2013-03-03 05:45:00,
2013-03-03 00:50:00,30.2,23.6,29.84,WNW,292,0.0,2.0,76,0.00,,CLR,0.00,VWS V14.00,2013-03-03 05:50:00,
2013-03-03 00:55:00,30.1,23.5,29.84,WNW,291,1.0,2.0,76,0.00,,CLR,0.00,VWS V14.00,2013-03-03 05:55:00,
2013-03-03 01:00:00,29.9,23.6,29.83,WNW,291,0.0,0.0,77,0.00,,CLR,0.00,VWS V14.00,2013-03-03 06:00:00,
2013-03-03 01:05:00,29.8,23.2,29.83,WNW,292,0.0,1.0,76,0.00,,CLR,0.00,VWS V14.00,2013-03-03 06:05:00,
2013-03-03 01:10:00,29.6,23.3,29.83,WNW,291,0.0,1.0,77,0.00,,CLR,0.00,VWS V14.00,2013-03-03 06:10:00,
2013-03-03 01:15:00,29.5,23.2,29.84,WNW,292,0.0,1.0,77,0.00,,CLR,0.00,VWS V14.00,2013-03-03 06:15:00,
2013-03-03 01:20:00,29.4,23.1,29.84,WNW,292,0.0,1.0,77,0.00,,CLR,0.00,VWS V14.00,2013-03-03 06:20:00,
2013-03-03 01:25:00,29.3,23.0,29.84,WNW,291,0.0,1.0,77,0.00,,CLR,0.00,VWS V14.00,2013-03-03 06:25:00,
2013-03-03 01:30:00,29.3,23.0,29.84,WNW,292,0.0,0.0,77,0.00,,CLR,0.00,VWS V14.00,2013-03-03 06:30:00,
2013-03-03 01:35:00,29.3,22.7,29.84,WNW,292,0.0,1.0,76,0.00,,CLR,0.00,VWS V14.00,2013-03-03 06:35:00,
2013-03-03 01:40:00,29.2,22.9,29.84,WNW,291,0.0,1.0,77,0.00,,CLR,0.00,VWS V14.00,2013-03-03 06:40:00,
2013-03-03 01:45:00,29.1,22.8,29.84,WNW,291,0.0,1.0,77,0.00,,CLR,0.00,VWS V14.00,2013-03-03 06:45:00,
2013-03-03 01:50:00,29.1,22.8,29.84,WNW,292,0.0,1.0,77,0.00,,CLR,0.00,VWS V14.00,2013-03-03 06:50:00,
2013-03-03 01:55:00,29.0,23.0,29.84,WNW,292,0.0,1.0,78,0.00,,CLR,0.00,VWS V14.00,2013-03-03 06:55:00,
2013-03-03 02:00:00,28.8,22.8,29.84,WNW,291,0.0,1.0,78,0.00,,CLR,0.00,VWS V14.00,2013-03-03 07:00:00,
2013-03-03 02:05:00,28.7,22.7,29.84,WNW,291,0.0,1.0,78,0.00,,CLR,0.00,VWS V14.00,2013-03-03 07:05:00,
2013-03-03 02:10:00,28.6,22.6,29.84,WNW,292,1.0,1.0,78,0.00,,CLR,0.00,VWS V14.00,2013-03-03 07:10:00,
2013-03-03 02:15:00,28.5,22.5,29.83,WNW,292,0.0,2.0,78,0.00,,CLR,0.00,VWS V14.00,2013-03-03 07:15:00,
2013-03-03 02:20:00,28.5,22.5,29.83,WNW,292,1.0,2.0,78,0.00,,CLR,0.00,VWS V14.00,2013-03-03 07:20:00,
2013-03-03 02:25:00,28.5,22.5,29.83,WNW,292,1.0,2.0,78,0.00,,CLR,0.00,VWS V14.00,2013-03-03 07:25:00,
2013-03-03 02:30:00,28.5,22.5,29.83,WNW,292,0.0,1.0,78,0.00,,CLR,0.00,VWS V14.00,2013-03-03 07:30:00,
2013-03-03 02:35:00,28.4,22.1,29.83,WNW,292,0.0,2.0,77,0.00,,CLR,0.00,VWS V14.00,2013-03-03 07:35:00,
2013-03-03 02:40:00,28.5,22.2,29.83,WNW,292,0.0,2.0,77,0.00,,CLR,0.00,VWS V14.00,2013-03-03 07:40:00,
2013-03-03 02:45:00,28.6,22.3,29.83,WNW,291,0.0,2.0,77,0.00,,CLR,0.00,VWS V14.00,2013-03-03 07:45:00,
2013-03-03 02:50:00,28.6,22.0,29.83,WNW,292,0.0,2.0,76,0.00,,CLR,0.00,VWS V14.00,2013-03-03 07:50:00,
2013-03-03 02:55:00,28.7,22.1,29.83,WNW,292,0.0,2.0,76,0.00,,CLR,0.00,VWS V14.00,2013-03-03 07:55:00,
2013-03-03 03:00:00,28.6,22.0,29.83,WNW,292,0.0,3.0,76,0.00,,CLR,0.00,VWS V14.00,2013-03-03 08:00:00,
2013-03-03 03:05:00,28.5,21.9,29.83,WNW,294,0.0,3.0,76,0.00,,CLR,0.00,VWS V14.00,2013-03-03 08:05:00,
2013-03-03 03:10:00,28.5,21.9,29.83,WNW,294,1.0,3.0,76,0.00,,CLR,0.00,VWS V14.00,2013-03-03 08:10:00,
2013-03-03 03:15:00,28.3,21.7,29.82,WNW,294,0.0,3.0,76,0.00,,CLR,0.00,VWS V14.00,2013-03-03 08:15:00,
2013-03-03 03:20:00,28.3,21.7,29.82,WNW,294,0.0,3.0,76,0.00,,CLR,0.00,VWS V14.00,2013-03-03 08:20:00,
2013-03-03 03:25:00,28.1,21.8,29.82,WNW,294,0.0,3.0,77,0.00,,CLR,0.00,VWS V14.00,2013-03-03 08:25:00,
2013-03-03 03:30:00,28.0,21.4,29.82,WNW,294,0.0,0.0,76,0.00,,CLR,0.00,VWS V14.00,2013-03-03 08:30:00,
2013-03-03 03:35:00,27.9,21.6,29.82,WNW,294,0.0,1.0,77,0.00,,CLR,0.00,VWS V14.00,2013-03-03 08:35:00,
2013-03-03 03:40:00,27.7,21.4,29.82,WNW,294,0.0,1.0,77,0.00,,CLR,0.00,VWS V14.00,2013-03-03 08:40:00,
2013-03-03 03:45:00,27.6,21.4,29.82,WNW,294,0.0,1.0,77,0.00,,CLR,0.00,VWS V14.00,2013-03-03 08:45:00,
2013-03-03 03:50:00,27.3,21.4,29.82,WNW,294,0.0,1.0,78,0.00,,CLR,0.00,VWS V14.00,2013-03-03 08:50:00,
2013-03-03 03:55:00,27.1,21.2,29.82,WNW,294,0.0,1.0,78,0.00,,CLR,0.00,VWS V14.00,2013-03-03 08:55:00,
2013-03-03 04:00:00,27.0,21.4,29.82,WNW,294,0.0,0.0,79,0.00,,CLR,0.00,VWS V14.00,2013-03-03 09:00:00,
2013-03-03 04:05:00,27.0,21.1,29.82,WNW,294,0.0,1.0,78,0.00,,CLR,0.00,VWS V14.00,2013-03-03 09:05:00,
2013-03-03 04:10:00,26.8,21.5,29.82,WNW,294,0.0,1.0,80,0.00,,CLR,0.00,VWS V14.00,2013-03-03 09:10:00,
2013-03-03 04:15:00,26.5,21.2,29.82,WNW,294,0.0,1.0,80,0.00,,CLR,0.00,VWS V14.00,2013-03-03 09:15:00,
2013-03-03 04:20:00,26.3,21.3,29.82,WNW,294,0.0,1.0,81,0.00,,CLR,0.00,VWS V14.00,2013-03-03 09:20:00,
2013-03-03 04:25:00,26.1,21.1,29.82,WNW,294,0.0,1.0,81,0.00,,CLR,0.00,VWS V14.00,2013-03-03 09:25:00,
2013-03-03 04:30:00,25.9,21.2,29.83,WNW,294,0.0,0.0,82,0.00,,CLR,0.00,VWS V14.00,2013-03-03 09:30:00,
2013-03-03 04:35:00,25.7,21.0,29.83,WNW,294,0.0,0.0,82,0.00,,CLR,0.00,VWS V14.00,2013-03-03 09:35:00,
2013-03-03 04:40:00,25.7,21.0,29.83,WNW,294,0.0,0.0,82,0.00,,CLR,0.00,VWS V14.00,2013-03-03 09:40:00,
2013-03-03 04:45:00,25.5,20.8,29.83,WNW,294,0.0,0.0,82,0.00,,CLR,0.00,VWS V14.00,2013-03-03 09:45:00,
2013-03-03 04:50:00,25.1,20.7,29.83,WNW,294,0.0,0.0,83,0.00,,CLR,0.00,VWS V14.00,2013-03-03 09:50:00,
2013-03-03 04:55:00,24.9,20.8,29.83,WNW,294,0.0,0.0,84,0.00,,CLR,0.00,VWS V14.00,2013-03-03 09:55:00,
2013-03-03 05:00:00,24.9,20.8,29.83,WNW,294,0.0,0.0,84,0.00,,CLR,0.00,VWS V14.00,2013-03-03 10:00:00,
2013-03-03 05:05:00,24.7,20.6,29.83,WNW,294,0.0,0.0,84,0.00,,CLR,0.00,VWS V14.00,2013-03-03 10:05:00,
2013-03-03 05:10:00,24.5,20.4,29.83,WNW,294,0.0,0.0,84,0.00,,CLR,0.00,VWS V14.00,2013-03-03 10:10:00,
2013-03-03 05:15:00,24.3,20.5,29.83,WNW,294,0.0,0.0,85,0.00,,CLR,0.00,VWS V14.00,2013-03-03 10:15:00,
2013-03-03 05:20:00,24.1,20.2,29.83,WNW,294,0.0,0.0,85,0.00,,CLR,0.00,VWS V14.00,2013-03-03 10:20:00,
2013-03-03 05:25:00,23.9,20.3,29.83,WNW,294,0.0,0.0,86,0.00,,CLR,0.00,VWS V14.00,2013-03-03 10:25:00,
2013-03-03 05:30:00,23.7,20.4,29.84,WNW,294,0.0,0.0,87,0.00,,CLR,0.00,VWS V14.00,2013-03-03 10:30:00,
2013-03-03 05:35:00,23.6,20.3,29.84,WNW,294,0.0,0.0,87,0.00,,CLR,0.00,VWS V14.00,2013-03-03 10:35:00,
2013-03-03 05:40:00,23.4,20.1,29.84,WNW,294,0.0,0.0,87,0.00,,CLR,0.00,VWS V14.00,2013-03-03 10:40:00,
2013-03-03 05:45:00,23.3,20.0,29.84,WNW,294,0.0,0.0,87,0.00,,CLR,0.00,VWS V14.00,2013-03-03 10:45:00,
2013-03-03 05:50:00,23.2,20.2,29.84,WNW,294,0.0,0.0,88,0.00,,CLR,0.00,VWS V14.00,2013-03-03 10:50:00,
2013-03-03 05:55:00,23.1,20.1,29.84,WNW,294,0.0,0.0,88,0.00,,CLR,0.00,VWS V14.00,2013-03-03 10:55:00,
2013-03-03 06:00:00,23.0,20.0,29.85,WNW,294,0.0,0.0,88,0.00,,CLR,0.00,VWS V14.00,2013-03-03 11:00:00,
2013-03-03 06:05:00,23.0,20.2,29.85,WNW,294,0.0,0.0,89,0.00,,CLR,0.00,VWS V14.00,2013-03-03 11:05:00,
2013-03-03 06:10:00,22.8,19.8,29.85,WNW,294,0.0,0.0,88,0.00,,CLR,0.00,VWS V14.00,2013-03-03 11:10:00,
2013-03-03 06:15:00,22.5,19.8,29.85,WNW,294,0.0,0.0,89,0.00,,CLR,0.00,VWS V14.00,2013-03-03 11:15:00,
2013-03-03 06:20:00,22.5,19.8,29.85,WNW,294,0.0,0.0,89,0.00,,CLR,0.00,VWS V14.00,2013-03-03 11:20:00,
2013-03-03 06:25:00,22.6,19.9,29.85,WNW,294,0.0,0.0,89,0.00,,CLR,0.00,VWS V14.00,2013-03-03 11:25:00,
2013-03-03 06:30:00,22.5,19.8,29.85,WNW,294,0.0,0.0,89,0.00,,CLR,0.00,VWS V14.00,2013-03-03 11:30:00,
2013-03-03 06:35:00,22.4,19.7,29.85,WNW,294,0.0,0.0,89,0.00,,CLR,0.00,VWS V14.00,2013-03-03 11:35:00,
2013-03-03 06:40:00,22.2,19.5,29.85,WNW,294,0.0,0.0,89,0.00,,CLR,0.00,VWS V14.00,2013-03-03 11:40:00,
2013-03-03 06:45:00,21.9,19.2,29.85,WNW,294,0.0,1.0,89,0.00,,CLR,0.00,VWS V14.00,2013-03-03 11:45:00,
2013-03-03 06:50:00,21.7,19.0,29.85,WNW,294,0.0,1.0,89,0.00,,CLR,0.00,VWS V14.00,2013-03-03 11:50:00,
2013-03-03 06:55:00,21.5,19.0,29.85,WNW,294,0.0,1.0,90,0.00,,CLR,0.00,VWS V14.00,2013-03-03 11:55:00,
2013-03-03 07:00:00,21.5,19.0,29.85,WNW,294,0.0,0.0,90,0.00,,CLR,0.00,VWS V14.00,2013-03-03 12:00:00,
2013-03-03 07:05:00,21.5,19.0,29.85,WNW,294,0.0,0.0,90,0.00,,CLR,0.00,VWS V14.00,2013-03-03 12:05:00,
2013-03-03 07:10:00,21.4,18.9,29.85,WNW,294,0.0,0.0,90,0.00,,CLR,0.00,VWS V14.00,2013-03-03 12:10:00,
2013-03-03 07:15:00,21.5,19.3,29.85,WNW,294,0.0,0.0,91,0.00,,CLR,0.00,VWS V14.00,2013-03-03 12:15:00,
2013-03-03 07:20:00,21.6,19.4,29.85,WNW,294,0.0,1.0,91,0.00,,CLR,0.00,VWS V14.00,2013-03-03 12:20:00,
2013-03-03 07:25:00,21.6,19.4,29.85,WNW,294,0.0,1.0,91,0.00,,CLR,0.00,VWS V14.00,2013-03-03 12:25:00,
2013-03-03 07:30:00,21.6,19.4,29.85,WNW,294,0.0,0.0,91,0.00,,CLR,0.00,VWS V14.00,2013-03-03 12:30:00,
2013-03-03 07:35:00,21.6,19.4,29.85,WNW,294,0.0,0.0,91,0.00,,CLR,0.00,VWS V14.00,2013-03-03 12:35:00,
2013-03-03 07:40:00,21.8,19.6,29.85,WNW,294,0.0,0.0,91,0.00,,CLR,0.00,VWS V14.00,2013-03-03 12:40:00,
2013-03-03 07:45:00,22.3,20.1,29.86,WNW,294,0.0,0.0,91,0.00,,CLR,0.00,VWS V14.00,2013-03-03 12:45:00,
2013-03-03 07:50:00,22.9,20.7,29.86,WNW,294,0.0,1.0,91,0.00,,CLR,0.00,VWS V14.00,2013-03-03 12:50:00,
2013-03-03 07:55:00,23.4,20.9,29.86,WNW,294,0.0,1.0,90,0.00,,CLR,0.00,VWS V14.00,2013-03-03 12:55:00,
2013-03-03 08:00:00,23.9,21.1,29.86,WNW,294,0.0,0.0,89,0.00,,CLR,0.00,VWS V14.00,2013-03-03 13:00:00,
2013-03-03 08:05:00,24.5,21.5,29.86,WNW,294,0.0,1.0,88,0.00,,CLR,0.00,VWS V14.00,2013-03-03 13:05:00,
2013-03-03 08:10:00,25.1,21.8,29.86,WNW,294,0.0,1.0,87,0.00,,CLR,0.00,VWS V14.00,2013-03-03 13:10:00,
2013-03-03 08:15:00,25.6,22.0,29.87,WNW,294,0.0,1.0,86,0.00,,CLR,0.00,VWS V14.00,2013-03-03 13:15:00,
2013-03-03 08:20:00,26.2,22.0,29.87,WNW,294,0.0,1.0,84,0.00,,CLR,0.00,VWS V14.00,2013-03-03 13:20:00,
2013-03-03 08:25:00,26.8,22.0,29.87,WNW,293,0.0,2.0,82,0.00,,CLR,0.00,VWS V14.00,2013-03-03 13:25:00,
2013-03-03 08:30:00,27.2,22.4,29.87,WNW,293,0.0,0.0,82,0.00,,CLR,0.00,VWS V14.00,2013-03-03 13:30:00,
2013-03-03 08:35:00,27.9,22.8,29.87,WNW,286,0.0,3.0,81,0.00,,CLR,0.00,VWS V14.00,2013-03-03 13:35:00,
2013-03-03 08:40:00,28.4,22.7,29.87,WNW,297,0.0,4.0,79,0.00,,CLR,0.00,VWS V14.00,2013-03-03 13:40:00,
2013-03-03 08:45:00,28.9,22.3,29.87,WNW,294,4.0,5.0,76,0.00,,CLR,0.00,VWS V14.00,2013-03-03 13:45:00,
2013-03-03 08:50:00,29.5,22.6,29.87,NW,311,5.0,5.0,75,0.00,,CLR,0.00,VWS V14.00,2013-03-03 13:50:00,
2013-03-03 08:55:00,30.0,21.8,29.87,WNW,303,2.0,9.0,71,0.00,,CLR,0.00,VWS V14.00,2013-03-03 13:55:00,
2013-03-03 09:00:00,30.3,21.0,29.88,WNW,295,6.0,10.0,68,0.00,,CLR,0.00,VWS V14.00,2013-03-03 14:00:00,
2013-03-03 09:05:00,30.7,21.1,29.88,WNW,288,4.0,11.0,67,0.00,,CLR,0.00,VWS V14.00,2013-03-03 14:05:00,
2013-03-03 09:10:00,31.0,21.0,29.88,WNW,297,3.0,11.0,66,0.00,,CLR,0.00,VWS V14.00,2013-03-03 14:10:00,
2013-03-03 09:15:00,31.3,19.8,29.88,NNW,333,4.0,11.0,62,0.00,,CLR,0.00,VWS V14.00,2013-03-03 14:15:00,
2013-03-03 09:20:00,31.7,20.9,29.88,WNW,297,8.0,11.0,64,0.00,,CLR,0.00,VWS V14.00,2013-03-03 14:20:00,
2013-03-03 09:25:00,32.0,20.9,29.88,West,275,0.0,11.0,63,0.00,,CLR,0.00,VWS V14.00,2013-03-03 14:25:00,
2013-03-03 09:30:00,32.3,20.8,29.88,NNW,345,4.0,5.0,62,0.00,,CLR,0.00,VWS V14.00,2013-03-03 14:30:00,
2013-03-03 09:35:00,32.6,20.7,29.88,NW,305,7.0,9.0,61,0.00,,CLR,0.00,VWS V14.00,2013-03-03 14:35:00,
2013-03-03 09:40:00,32.8,20.5,29.88,NW,309,5.0,10.0,60,0.00,,CLR,0.00,VWS V14.00,2013-03-03 14:40:00,
2013-03-03 09:45:00,33.0,21.4,29.88,WSW,254,3.0,11.0,62,0.00,,CLR,0.00,VWS V14.00,2013-03-03 14:45:00,
2013-03-03 09:50:00,33.2,20.8,29.88,WSW,240,8.0,11.0,60,0.00,,CLR,0.00,VWS V14.00,2013-03-03 14:50:00,
2013-03-03 09:55:00,33.5,20.7,29.88,SSW,210,4.0,11.0,59,0.00,,CLR,0.00,VWS V14.00,2013-03-03 14:55:00,
2013-03-03 10:00:00,33.8,22.2,29.87,WNW,300,1.0,6.0,62,0.00,,CLR,0.00,VWS V14.00,2013-03-03 15:00:00,
2013-03-03 10:05:00,34.4,21.6,29.87,WSW,239,0.0,6.0,59,0.00,,CLR,0.00,VWS V14.00,2013-03-03 15:05:00,
2013-03-03 10:10:00,34.4,21.2,29.87,WNW,283,2.0,9.0,58,0.00,,CLR,0.00,VWS V14.00,2013-03-03 15:10:00,
2013-03-03 10:15:00,34.6,21.4,29.87,WNW,300,0.0,9.0,58,0.00,,CLR,0.00,VWS V14.00,2013-03-03 15:15:00,
2013-03-03 10:20:00,35.1,21.8,29.87,North,351,4.0,9.0,58,0.00,,CLR,0.00,VWS V14.00,2013-03-03 15:20:00,
2013-03-03 10:25:00,35.4,21.3,29.87,NNW,328,0.0,9.0,56,0.00,,CLR,0.00,VWS V14.00,2013-03-03 15:25:00,
2013-03-03 10:30:00,35.5,21.8,29.87,North,351,0.0,4.0,57,0.00,,CLR,0.00,VWS V14.00,2013-03-03 15:30:00,
2013-03-03 10:35:00,35.9,22.6,29.87,West,271,0.0,6.0,58,0.00,,CLR,0.00,VWS V14.00,2013-03-03 15:35:00,
2013-03-03 10:40:00,36.5,22.7,29.87,West,277,1.0,6.0,57,0.00,,CLR,0.00,VWS V14.00,2013-03-03 15:40:00,
2013-03-03 10:45:00,37.2,22.5,29.87,West,274,2.0,6.0,55,0.00,,CLR,0.00,VWS V14.00,2013-03-03 15:45:00,
2013-03-03 10:50:00,37.4,22.3,29.87,North,359,4.0,6.0,54,0.00,,CLR,0.00,VWS V14.00,2013-03-03 15:50:00,
2013-03-03 10:55:00,37.2,21.7,29.87,NW,318,0.0,6.0,53,0.00,,CLR,0.00,VWS V14.00,2013-03-03 15:55:00,
2013-03-03 11:00:00,37.3,21.8,29.86,WNW,295,2.0,5.0,53,0.00,,CLR,0.00,VWS V14.00,2013-03-03 16:00:00,
2013-03-03 11:05:00,37.5,22.4,29.86,SSW,211,2.0,5.0,54,0.00,,CLR,0.00,VWS V14.00,2013-03-03 16:05:00,
2013-03-03 11:10:00,37.1,22.0,29.86,SSW,200,0.0,5.0,54,0.00,,CLR,0.00,VWS V14.00,2013-03-03 16:10:00,
2013-03-03 11:15:00,37.2,22.5,29.86,SSW,202,0.0,5.0,55,0.00,,CLR,0.00,VWS V14.00,2013-03-03 16:15:00,
2013-03-03 11:20:00,37.3,21.8,29.86,South,180,1.0,5.0,53,0.00,,CLR,0.00,VWS V14.00,2013-03-03 16:20:00,
2013-03-03 11:25:00,37.7,21.7,29.86,SE,138,0.0,5.0,52,0.00,,CLR,0.00,VWS V14.00,2013-03-03 16:25:00,
2013-03-03 11:30:00,38.3,23.1,29.86,ESE,114,0.0,1.0,54,0.00,,CLR,0.00,VWS V14.00,2013-03-03 16:30:00,
2013-03-03 11:35:00,38.9,23.7,29.86,WNW,302,2.0,4.0,54,0.00,,CLR,0.00,VWS V14.00,2013-03-03 16:35:00,
2013-03-03 11:40:00,39.0,22.9,29.86,NW,326,3.0,10.0,52,0.00,,CLR,0.00,VWS V14.00,2013-03-03 16:40:00,
2013-03-03 11:45:00,38.9,22.3,29.85,WSW,241,4.0,10.0,51,0.00,,CLR,0.00,VWS V14.00,2013-03-03 16:45:00,
2013-03-03 11:50:00,38.9,23.2,29.85,South,188,0.0,10.0,53,0.00,,CLR,0.00,VWS V14.00,2013-03-03 16:50:00,
2013-03-03 11:55:00,38.8,21.3,29.85,SE,135,4.0,10.0,49,0.00,,CLR,0.00,VWS V14.00,2013-03-03 16:55:00,
2013-03-03 12:00:00,38.9,23.2,29.85,South,172,3.0,3.0,53,0.00,,CLR,0.00,VWS V14.00,2013-03-03 17:00:00,
2013-03-03 12:05:00,39.7,23.5,29.85,SSE,162,0.0,4.0,52,0.00,,CLR,0.00,VWS V14.00,2013-03-03 17:05:00,
2013-03-03 12:10:00,40.2,23.5,29.85,South,169,0.0,4.0,51,0.00,,CLR,0.00,VWS V14.00,2013-03-03 17:10:00,
2013-03-03 12:15:00,40.7,24.9,29.85,SW,218,0.0,4.0,53,0.00,,CLR,0.00,VWS V14.00,2013-03-03 17:15:00,
2013-03-03 12:20:00,41.1,23.4,29.85,North,351,0.0,5.0,49,0.00,,CLR,0.00,VWS V14.00,2013-03-03 17:20:00,
2013-03-03 12:25:00,40.8,22.6,29.85,West,263,0.0,6.0,48,0.00,,CLR,0.00,VWS V14.00,2013-03-03 17:25:00,
2013-03-03 12:30:00,40.7,22.5,29.84,South,188,7.0,7.0,48,0.00,,CLR,0.00,VWS V14.00,2013-03-03 17:30:00,
2013-03-03 12:35:00,40.5,22.4,29.84,SW,221,0.0,9.0,48,0.00,,CLR,0.00,VWS V14.00,2013-03-03 17:35:00,
2013-03-03 12:40:00,40.8,24.1,29.84,SW,228,2.0,9.0,51,0.00,,CLR,0.00,VWS V14.00,2013-03-03 17:40:00,
2013-03-03 12:45:00,41.2,23.5,29.83,East,87,0.0,9.0,49,0.00,,CLR,0.00,VWS V14.00,2013-03-03 17:45:00,
2013-03-03 12:50:00,42.0,23.2,29.83,ESE,110,3.0,9.0,47,0.00,,CLR,0.00,VWS V14.00,2013-03-03 17:50:00,
2013-03-03 12:55:00,42.2,24.4,29.83,WNW,301,3.0,9.0,49,0.00,,CLR,0.00,VWS V14.00,2013-03-03 17:55:00,
2013-03-03 13:00:00,42.4,24.1,29.83,West,259,4.0,9.0,48,0.00,,CLR,0.00,VWS V14.00,2013-03-03 18:00:00,
2013-03-03 13:05:00,41.9,23.7,29.83,WNW,285,7.0,9.0,48,0.00,,CLR,0.00,VWS V14.00,2013-03-03 18:05:00,
2013-03-03 13:10:00,41.6,22.9,29.83,NW,318,0.0,9.0,47,0.00,,CLR,0.00,VWS V14.00,2013-03-03 18:10:00,
2013-03-03 13:15:00,41.4,23.2,29.82,NW,315,6.0,9.0,48,0.00,,CLR,0.00,VWS V14.00,2013-03-03 18:15:00,
2013-03-03 13:20:00,41.4,23.2,29.82,NNE,18,4.0,9.0,48,0.00,,CLR,0.00,VWS V14.00,2013-03-03 18:20:00,
2013-03-03 13:25:00,41.7,23.0,29.82,North,359,4.0,9.0,47,0.00,,CLR,0.00,VWS V14.00,2013-03-03 18:25:00,
2013-03-03 13:30:00,41.7,23.5,29.81,NW,314,3.0,7.0,48,0.00,,CLR,0.00,VWS V14.00,2013-03-03 18:30:00,
2013-03-03 13:35:00,42.1,23.3,29.81,North,359,5.0,7.0,47,0.00,,CLR,0.00,VWS V14.00,2013-03-03 18:35:00,
2013-03-03 13:40:00,42.1,23.3,29.81,WNW,290,0.0,7.0,47,0.00,,CLR,0.00,VWS V14.00,2013-03-03 18:40:00,
2013-03-03 13:45:00,42.5,23.2,29.81,WSW,257,4.0,10.0,46,0.00,,CLR,0.00,VWS V14.00,2013-03-03 18:45:00,
2013-03-03 13:50:00,43.1,23.7,29.81,WSW,255,4.0,11.0,46,0.00,,CLR,0.00,VWS V14.00,2013-03-03 18:50:00,
2013-03-03 13:55:00,43.6,24.2,29.81,WNW,299,7.0,11.0,46,0.00,,CLR,0.00,VWS V14.00,2013-03-03 18:55:00,
2013-03-03 14:00:00,43.5,23.6,29.80,NW,306,7.0,9.0,45,0.00,,CLR,0.00,VWS V14.00,2013-03-03 19:00:00,
2013-03-03 14:05:00,43.2,23.8,29.80,NW,307,0.0,9.0,46,0.00,,CLR,0.00,VWS V14.00,2013-03-03 19:05:00,
2013-03-03 14:10:00,43.7,23.8,29.80,NW,311,3.0,9.0,45,0.00,,CLR,0.00,VWS V14.00,2013-03-03 19:10:00,
2013-03-03 14:15:00,44.1,24.1,29.80,WSW,240,1.0,9.0,45,0.00,,CLR,0.00,VWS V14.00,2013-03-03 19:15:00,
2013-03-03 14:20:00,44.3,23.8,29.80,West,270,2.0,9.0,44,0.00,,CLR,0.00,VWS V14.00,2013-03-03 19:20:00,
2013-03-03 14:25:00,44.6,25.1,29.80,SSW,201,4.0,11.0,46,0.00,,CLR,0.00,VWS V14.00,2013-03-03 19:25:00,
2013-03-03 14:30:00,45.1,25.0,29.80,SSW,200,9.0,11.0,45,0.00,,CLR,0.00,VWS V14.00,2013-03-03 19:30:00,
2013-03-03 14:35:00,45.2,25.1,29.80,West,273,1.0,11.0,45,0.00,,CLR,0.00,VWS V14.00,2013-03-03 19:35:00,
2013-03-03 14:40:00,45.3,24.1,29.80,West,266,9.0,11.0,43,0.00,,CLR,0.00,VWS V14.00,2013-03-03 19:40:00,
2013-03-03 14:45:00,45.1,24.5,29.80,NW,322,0.0,11.0,44,0.00,,CLR,0.00,VWS V14.00,2013-03-03 19:45:00,
2013-03-03 14:50:00,45.3,25.8,29.80,NW,309,3.0,11.0,46,0.00,,CLR,0.00,VWS V14.00,2013-03-03 19:50:00,
2013-03-03 14:55:00,45.6,25.5,29.80,West,271,2.0,11.0,45,0.00,,CLR,0.00,VWS V14.00,2013-03-03 19:55:00,
2013-03-03 15:00:00,46.2,25.5,29.80,SW,221,1.0,7.0,44,0.00,,CLR,0.00,VWS V14.00,2013-03-03 20:00:00,
2013-03-03 15:05:00,46.8,25.5,29.80,West,271,4.0,10.0,43,0.00,,CLR,0.00,VWS V14.00,2013-03-03 20:05:00,
2013-03-03 15:10:00,46.0,24.8,29.80,SSW,211,10.0,13.0,43,0.00,,CLR,0.00,VWS V14.00,2013-03-03 20:10:00,
2013-03-03 15:15:00,45.0,24.4,29.79,SSW,206,7.0,13.0,44,0.00,,CLR,0.00,VWS V14.00,2013-03-03 20:15:00,
2013-03-03 15:20:00,44.8,24.8,29.79,West,271,3.0,14.0,45,0.00,,CLR,0.00,VWS V14.00,2013-03-03 20:20:00,
2013-03-03 15:25:00,44.8,25.3,29.79,WSW,254,10.0,14.0,46,0.00,,CLR,0.00,VWS V14.00,2013-03-03 20:25:00,
2013-03-03 15:30:00,44.5,24.5,29.79,South,183,10.0,16.0,45,0.00,,CLR,0.00,VWS V14.00,2013-03-03 20:30:00,
2013-03-03 15:35:00,44.5,25.0,29.79,SW,232,4.0,16.0,46,0.00,,CLR,0.00,VWS V14.00,2013-03-03 20:35:00,
2013-03-03 15:40:00,44.4,23.9,29.79,SSW,212,8.0,17.0,44,0.00,,CLR,0.00,VWS V14.00,2013-03-03 20:40:00,
2013-03-03 15:45:00,44.3,24.3,29.80,SW,220,7.0,17.0,45,0.00,,CLR,0.00,VWS V14.00,2013-03-03 20:45:00,
2013-03-03 15:50:00,44.4,24.4,29.80,West,261,7.0,17.0,45,0.00,,CLR,0.00,VWS V14.00,2013-03-03 20:50:00,
2013-03-03 15:55:00,44.4,24.9,29.80,SW,217,1.0,17.0,46,0.00,,CLR,0.00,VWS V14.00,2013-03-03 20:55:00,
2013-03-03 16:00:00,44.8,24.2,29.80,West,279,5.0,12.0,44,0.00,,CLR,0.00,VWS V14.00,2013-03-03 21:00:00,
2013-03-03 16:05:00,44.4,23.9,29.80,WNW,297,7.0,12.0,44,0.00,,CLR,0.00,VWS V14.00,2013-03-03 21:05:00,
2013-03-03 16:10:00,44.0,24.6,29.80,WNW,295,5.0,12.0,46,0.00,,CLR,0.00,VWS V14.00,2013-03-03 21:10:00,
2013-03-03 16:15:00,44.1,24.1,29.80,NNW,330,8.0,13.0,45,0.00,,CLR,0.00,VWS V14.00,2013-03-03 21:15:00,
2013-03-03 16:20:00,44.3,23.8,29.80,WNW,282,6.0,13.0,44,0.00,,CLR,0.00,VWS V14.00,2013-03-03 21:20:00,
2013-03-03 16:25:00,44.3,24.3,29.80,South,187,2.0,13.0,45,0.00,,CLR,0.00,VWS V14.00,2013-03-03 21:25:00,
2013-03-03 16:30:00,44.7,23.6,29.80,SW,226,5.0,15.0,43,0.00,,CLR,0.00,VWS V14.00,2013-03-03 21:30:00,
2013-03-03 16:35:00,44.2,23.7,29.80,SW,225,5.0,15.0,44,0.00,,CLR,0.00,VWS V14.00,2013-03-03 21:35:00,
2013-03-03 16:40:00,43.8,23.3,29.80,SW,226,0.0,15.0,44,0.00,,CLR,0.00,VWS V14.00,2013-03-03 21:40:00,
2013-03-03 16:45:00,43.5,24.1,29.81,NW,304,5.0,18.0,46,0.00,,CLR,0.00,VWS V14.00,2013-03-03 21:45:00,
2013-03-03 16:50:00,43.0,23.1,29.81,WSW,257,4.0,18.0,45,0.00,,CLR,0.00,VWS V14.00,2013-03-03 21:50:00,
2013-03-03 16:55:00,43.1,23.7,29.81,West,266,5.0,18.0,46,0.00,,CLR,0.00,VWS V14.00,2013-03-03 21:55:00,
2013-03-03 17:00:00,43.1,23.7,29.81,WNW,292,4.0,10.0,46,0.00,,CLR,0.00,VWS V14.00,2013-03-03 22:00:00,
2013-03-03 17:05:00,43.0,23.1,29.81,West,274,3.0,10.0,45,0.00,,CLR,0.00,VWS V14.00,2013-03-03 22:05:00,
2013-03-03 17:10:00,42.7,23.4,29.81,West,273,5.0,13.0,46,0.00,,CLR,0.00,VWS V14.00,2013-03-03 22:10:00,
2013-03-03 17:15:00,42.2,22.9,29.82,NNW,330,5.0,13.0,46,0.00,,CLR,0.00,VWS V14.00,2013-03-03 22:15:00,
2013-03-03 17:20:00,41.9,22.6,29.82,NW,317,2.0,13.0,46,0.00,,CLR,0.00,VWS V14.00,2013-03-03 22:20:00,
2013-03-03 17:25:00,41.8,22.5,29.82,North,353,5.0,13.0,46,0.00,,CLR,0.00,VWS V14.00,2013-03-03 22:25:00,
2013-03-03 17:30:00,41.7,23.5,29.82,West,281,2.0,7.0,48,0.00,,CLR,0.00,VWS V14.00,2013-03-03 22:30:00,
2013-03-03 17:35:00,41.7,22.5,29.82,NW,312,7.0,12.0,46,0.00,,CLR,0.00,VWS V14.00,2013-03-03 22:35:00,
2013-03-03 17:40:00,41.4,22.2,29.82,WNW,288,2.0,12.0,46,0.00,,CLR,0.00,VWS V14.00,2013-03-03 22:40:00,
2013-03-03 17:45:00,41.1,22.4,29.83,WNW,297,0.0,12.0,47,0.00,,CLR,0.00,VWS V14.00,2013-03-03 22:45:00,
2013-03-03 17:50:00,40.9,22.7,29.83,NW,321,2.0,12.0,48,0.00,,CLR,0.00,VWS V14.00,2013-03-03 22:50:00,
2013-03-03 17:55:00,40.6,22.0,29.83,WNW,301,3.0,12.0,47,0.00,,CLR,0.00,VWS V14.00,2013-03-03 22:55:00,
2013-03-03 18:00:00,40.3,21.7,29.83,WNW,286,5.0,11.0,47,0.00,,CLR,0.00,VWS V14.00,2013-03-03 23:00:00,
2013-03-03 18:05:00,39.8,21.7,29.83,NNW,327,10.0,12.0,48,0.00,,CLR,0.00,VWS V14.00,2013-03-03 23:05:00,
2013-03-03 18:10:00,39.2,21.2,29.83,NW,313,3.0,13.0,48,0.00,,CLR,0.00,VWS V14.00,2013-03-03 23:10:00,
2013-03-03 18:15:00,38.6,21.6,29.84,West,269,5.0,13.0,50,0.00,,CLR,0.00,VWS V14.00,2013-03-03 23:15:00,
2013-03-03 18:20:00,38.1,21.1,29.84,WNW,302,7.0,13.0,50,0.00,,CLR,0.00,VWS V14.00,2013-03-03 23:20:00,
2013-03-03 18:25:00,37.7,20.8,29.84,NW,304,2.0,13.0,50,0.00,,CLR,0.00,VWS V14.00,2013-03-03 23:25:00,
2013-03-03 18:30:00,37.3,20.4,29.85,NW,321,4.0,14.0,50,0.00,,CLR,0.00,VWS V14.00,2013-03-03 23:30:00,
2013-03-03 18:35:00,37.0,20.6,29.85,NW,314,2.0,14.0,51,0.00,,CLR,0.00,VWS V14.00,2013-03-03 23:35:00,
2013-03-03 18:40:00,36.7,20.8,29.85,NW,315,1.0,14.0,52,0.00,,CLR,0.00,VWS V14.00,2013-03-03 23:40:00,
2013-03-03 18:45:00,36.3,19.9,29.85,NNW,346,5.0,14.0,51,0.00,,CLR,0.00,VWS V14.00,2013-03-03 23:45:00,
2013-03-03 18:50:00,36.1,20.2,29.85,WNW,300,3.0,14.0,52,0.00,,CLR,0.00,VWS V14.00,2013-03-03 23:50:00,
2013-03-03 18:55:00,35.8,19.9,29.85,WNW,288,9.0,15.0,52,0.00,,CLR,0.00,VWS V14.00,2013-03-03 23:55:00,
2013-03-03 19:00:00,35.7,19.8,29.86,NW,320,3.0,12.0,52,0.00,,CLR,0.00,VWS V14.00,2013-03-04 00:00:00,
2013-03-03 19:05:00,35.4,20.0,29.86,NW,304,5.0,12.0,53,0.00,,CLR,0.00,VWS V14.00,2013-03-04 00:05:00,
2013-03-03 19:10:00,35.1,19.7,29.86,NW,311,7.0,12.0,53,0.00,,CLR,0.00,VWS V14.00,2013-03-04 00:10:00,
2013-03-03 19:15:00,34.9,19.5,29.86,NW,305,2.0,12.0,53,0.00,,CLR,0.00,VWS V14.00,2013-03-04 00:15:00,
2013-03-03 19:20:00,34.6,19.7,29.86,North,350,3.0,13.0,54,0.00,,CLR,0.00,VWS V14.00,2013-03-04 00:20:00,
2013-03-03 19:25:00,34.4,19.5,29.86,West,274,7.0,14.0,54,0.00,,CLR,0.00,VWS V14.00,2013-03-04 00:25:00,
2013-03-03 19:30:00,34.4,19.5,29.87,NW,321,4.0,8.0,54,0.00,,CLR,0.00,VWS V14.00,2013-03-04 00:30:00,
2013-03-03 19:35:00,34.2,20.1,29.87,NNW,328,1.0,11.0,56,0.00,,CLR,0.00,VWS V14.00,2013-03-04 00:35:00,
2013-03-03 19:40:00,33.9,19.5,29.87,NW,304,3.0,11.0,55,0.00,,CLR,0.00,VWS V14.00,2013-03-04 00:40:00,
2013-03-03 19:45:00,33.7,20.1,29.88,NW,310,3.0,11.0,57,0.00,,CLR,0.00,VWS V14.00,2013-03-04 00:45:00,
2013-03-03 19:50:00,33.4,19.4,29.88,NW,312,1.0,11.0,56,0.00,,CLR,0.00,VWS V14.00,2013-03-04 00:50:00,
2013-03-03 19:55:00,33.2,19.2,29.88,NW,306,6.0,11.0,56,0.00,,CLR,0.00,VWS V14.00,2013-03-04 00:55:00,
2013-03-03 20:00:00,33.1,19.5,29.88,NNW,338,1.0,5.0,57,0.00,,CLR,0.00,VWS V14.00,2013-03-04 01:00:00,
2013-03-03 20:05:00,32.8,19.7,29.88,WNW,300,0.0,7.0,58,0.00,,CLR,0.00,VWS V14.00,2013-03-04 01:05:00,
2013-03-03 20:10:00,32.6,19.5,29.88,WNW,296,1.0,7.0,58,0.00,,CLR,0.00,VWS V14.00,2013-03-04 01:10:00,
2013-03-03 20:15:00,32.5,19.4,29.88,WNW,299,3.0,7.0,58,0.00,,CLR,0.00,VWS V14.00,2013-03-04 01:15:00,
2013-03-03 20:20:00,32.4,19.3,29.88,WNW,303,0.0,7.0,58,0.00,,CLR,0.00,VWS V14.00,2013-03-04 01:20:00,
2013-03-03 20:25:00,32.3,19.2,29.88,WNW,301,2.0,7.0,58,0.00,,CLR,0.00,VWS V14.00,2013-03-04 01:25:00,
2013-03-03 20:30:00,32.3,19.2,29.88,WNW,295,0.0,2.0,58,0.00,,CLR,0.00,VWS V14.00,2013-03-04 01:30:00,
2013-03-03 20:35:00,32.2,19.1,29.88,WNW,295,0.0,2.0,58,0.00,,CLR,0.00,VWS V14.00,2013-03-04 01:35:00,
2013-03-03 20:40:00,32.0,19.3,29.88,WNW,293,1.0,2.0,59,0.00,,CLR,0.00,VWS V14.00,2013-03-04 01:40:00,
2013-03-03 20:45:00,31.7,19.0,29.89,WNW,295,1.0,5.0,59,0.00,,CLR,0.00,VWS V14.00,2013-03-04 01:45:00,
2013-03-03 20:50:00,31.4,19.1,29.89,WNW,292,1.0,5.0,60,0.00,,CLR,0.00,VWS V14.00,2013-03-04 01:50:00,
2013-03-03 20:55:00,31.0,18.8,29.89,WNW,293,1.0,5.0,60,0.00,,CLR,0.00,VWS V14.00,2013-03-04 01:55:00,
2013-03-03 21:00:00,30.8,19.0,29.89,WNW,291,1.0,1.0,61,0.00,,CLR,0.00,VWS V14.00,2013-03-04 02:00:00,
2013-03-03 21:05:00,30.7,18.5,29.89,WNW,291,0.0,2.0,60,0.00,,CLR,0.00,VWS V14.00,2013-03-04 02:05:00,
2013-03-03 21:10:00,30.6,18.4,29.89,WNW,291,0.0,2.0,60,0.00,,CLR,0.00,VWS V14.00,2013-03-04 02:10:00,
2013-03-03 21:15:00,30.5,18.3,29.90,WNW,291,0.0,2.0,60,0.00,,CLR,0.00,VWS V14.00,2013-03-04 02:15:00,
2013-03-03 21:20:00,30.4,18.2,29.90,WNW,290,0.0,2.0,60,0.00,,CLR,0.00,VWS V14.00,2013-03-04 02:20:00,
2013-03-03 21:26:00,30.3,18.1,29.90,WNW,290,1.0,2.0,60,0.00,,CLR,0.00,VWS V14.00,2013-03-04 02:26:00,
2013-03-03 21:30:00,30.2,18.4,29.90,WNW,290,0.0,2.0,61,0.00,,CLR,0.00,VWS V14.00,2013-03-04 02:30:00,
2013-03-03 21:31:00,30.2,18.4,29.90,WNW,290,0.0,0.0,61,0.00,,CLR,0.00,VWS V14.00,2013-03-04 02:31:00,
2013-03-03 21:36:00,30.1,18.3,29.90,WNW,290,0.0,1.0,61,0.00,,CLR,0.00,VWS V14.00,2013-03-04 02:36:00,
2013-03-03 21:41:00,30.0,18.2,29.90,WNW,288,0.0,2.0,61,0.00,,CLR,0.00,VWS V14.00,2013-03-04 02:41:00,
2013-03-03 21:46:00,29.9,18.1,29.90,WNW,288,0.0,2.0,61,0.00,,CLR,0.00,VWS V14.00,2013-03-04 02:46:00,
2013-03-03 21:51:00,29.7,18.3,29.90,WNW,288,0.0,2.0,62,0.00,,CLR,0.00,VWS V14.00,2013-03-04 02:51:00,
2013-03-03 21:56:00,29.6,18.2,29.90,WNW,288,0.0,2.0,62,0.00,,CLR,0.00,VWS V14.00,2013-03-04 02:56:00,
2013-03-03 22:00:00,29.4,18.0,29.90,WNW,288,0.0,2.0,62,0.00,,CLR,0.00,VWS V14.00,2013-03-04 03:00:00,
2013-03-03 22:01:00,29.4,18.0,29.90,WNW,288,0.0,0.0,62,0.00,,CLR,0.00,VWS V14.00,2013-03-04 03:01:00,
2013-03-03 22:06:00,29.3,17.9,29.90,WNW,288,0.0,1.0,62,0.00,,CLR,0.00,VWS V14.00,2013-03-04 03:06:00,
2013-03-03 22:11:00,29.1,18.1,29.90,WNW,288,0.0,1.0,63,0.00,,CLR,0.00,VWS V14.00,2013-03-04 03:11:00,
2013-03-03 22:16:00,29.1,18.1,29.91,WNW,296,0.0,3.0,63,0.00,,CLR,0.00,VWS V14.00,2013-03-04 03:16:00,
2013-03-03 22:21:00,29.3,18.3,29.91,WNW,285,0.0,4.0,63,0.00,,CLR,0.00,VWS V14.00,2013-03-04 03:21:00,
2013-03-03 22:26:00,29.4,18.4,29.91,WNW,285,0.0,4.0,63,0.00,,CLR,0.00,VWS V14.00,2013-03-04 03:26:00,
2013-03-03 22:30:00,29.4,18.4,29.91,WNW,285,0.0,4.0,63,0.00,,CLR,0.00,VWS V14.00,2013-03-04 03:30:00,
2013-03-03 22:31:00,29.4,18.4,29.91,WNW,284,0.0,1.0,63,0.00,,CLR,0.00,VWS V14.00,2013-03-04 03:31:00,
2013-03-03 22:36:00,29.4,18.4,29.91,West,278,0.0,2.0,63,0.00,,CLR,0.00,VWS V14.00,2013-03-04 03:36:00,
2013-03-03 22:41:00,29.4,18.7,29.91,West,279,0.0,2.0,64,0.00,,CLR,0.00,VWS V14.00,2013-03-04 03:41:00,
2013-03-03 22:46:00,29.3,18.6,29.91,WNW,282,0.0,3.0,64,0.00,,CLR,0.00,VWS V14.00,2013-03-04 03:46:00,
2013-03-03 22:51:00,29.2,18.5,29.91,WNW,282,0.0,3.0,64,0.00,,CLR,0.00,VWS V14.00,2013-03-04 03:51:00,
2013-03-03 22:56:00,29.1,18.1,29.91,West,281,0.0,3.0,63,0.00,,CLR,0.00,VWS V14.00,2013-03-04 03:56:00,
2013-03-03 23:00:00,29.1,18.5,29.91,West,281,0.0,3.0,64,0.00,,CLR,0.00,VWS V14.00,2013-03-04 04:00:00,
2013-03-03 23:01:00,29.1,18.5,29.91,West,281,0.0,1.0,64,0.00,,CLR,0.00,VWS V14.00,2013-03-04 04:01:00,
2013-03-03 23:06:00,29.0,18.7,29.91,West,281,0.0,1.0,65,0.00,,CLR,0.00,VWS V14.00,2013-03-04 04:06:00,
2013-03-03 23:11:00,28.8,18.2,29.91,WNW,282,0.0,1.0,64,0.00,,CLR,0.00,VWS V14.00,2013-03-04 04:11:00,
2013-03-03 23:16:00,28.8,18.2,29.90,WNW,282,0.0,1.0,64,0.00,,CLR,0.00,VWS V14.00,2013-03-04 04:16:00,
2013-03-03 23:21:00,28.8,17.8,29.90,West,278,0.0,2.0,63,0.00,,CLR,0.00,VWS V14.00,2013-03-04 04:21:00,
2013-03-03 23:26:00,28.8,17.8,29.90,West,265,0.0,2.0,63,0.00,,CLR,0.00,VWS V14.00,2013-03-04 04:26:00,
2013-03-03 23:30:00,28.8,17.8,29.90,West,265,0.0,2.0,63,0.00,,CLR,0.00,VWS V14.00,2013-03-04 04:30:00,
2013-03-03 23:31:00,28.8,17.8,29.90,West,265,0.0,0.0,63,0.00,,CLR,0.00,VWS V14.00,2013-03-04 04:31:00,
2013-03-03 23:36:00,28.9,17.9,29.90,West,264,0.0,2.0,63,0.00,,CLR,0.00,VWS V14.00,2013-03-04 04:36:00,
2013-03-03 23:41:00,28.9,17.9,29.90,West,265,1.0,2.0,63,0.00,,CLR,0.00,VWS V14.00,2013-03-04 04:41:00,
2013-03-03 23:46:00,28.9,17.5,29.91,West,271,0.0,2.0,62,0.00,,CLR,0.00,VWS V14.00,2013-03-04 04:46:00,
2013-03-03 23:51:00,28.9,17.9,29.91,West,270,0.0,2.0,63,0.00,,CLR,0.00,VWS V14.00,2013-03-04 04:51:00,
2013-03-03 23:55:00,28.7,17.7,29.91,West,271,0.0,2.0,63,0.00,,CLR,0.00,VWS V14.00,2013-03-04 04:55:00,